Regional Weather Roundup
Issued by NWS

Home | Current Version | Previous Version | Graphics & Text | Print | Product List | Glossary On
Versions: 1 2 3 4 5 6 7 8 9 10 11 12 13 14 15 16 17 18 19 20 21 22 23 24 25 26 27 28 29 30 31 32 33 34 35 36 37 38 39 40 41 42 43 44 45 46 47 48 49 50
000
ASUS43 KLMK 261910
RWRKY
KENTUCKY REGIONAL WEATHER ROUNDUP
NATIONAL WEATHER SERVICE LOUISVILLE KY
300 PM EDT FRI MAY 26 2017

NOTE "FAIR" INDICATES FEW OR NO CLOUDS BELOW 12,000 FEET
WITH NO SIGNIFICANT WEATHER AND/OR OBSTRUCTIONS TO VISIBILITY.

KYZ001>023-026-027-061>063-070>075-262000-
WESTERN AND SOUTH CENTRAL KENTUCKY

CITY           SKY/WX    TMP DP  RH WIND       PRES   REMARKS
PADUCAH        MOSUNNY   86  54  33 SW18G28   29.78F
HENDERSON      SUNNY     80  62  54 S14       29.82S
OWENSBORO      SUNNY     80  64  58 S15       29.83F
HOPKINSVILLE   MOSUNNY   82  58  43 S17G23    29.85F
BOWLING GREEN  MOSUNNY   81  65  58 S15G23    29.87F
GLASGOW        MOSUNNY   76  62  62 SE9       29.90F
$$

KYZ024-025-028>034-038-045-046-053-262000-
NORTH CENTRAL KENTUCKY

CITY           SKY/WX    TMP DP  RH WIND       PRES   REMARKS
LOUISVILLE/SDF PTSUNNY   79  61  53 S14G20    29.87S
LOUISVILLE/LOU SUNNY     79  62  56 SE12G18   29.87F
FORT KNOX      PTSUNNY   78  63  60 S14       29.86S
$$

KYZ035>037-039>044-047>052-055>060-089>105-262000-
NORTHEAST KENTUCKY

CITY           SKY/WX    TMP DP  RH WIND       PRES   REMARKS
LEXINGTON      MOSUNNY   76  56  49 S10       29.92F
COVINGTON      MOSUNNY   75  58  55 S9        29.88F
FRANKFORT      MOSUNNY   78  56  46 S12G17    29.88F
$$

KYZ054-064>069-076>088-106>120-262000-
SOUTHEAST KENTUCKY

CITY           SKY/WX    TMP DP  RH WIND       PRES   REMARKS
JACKSON        MOSUNNY   74  57  55 VRB3      29.97F
LONDON         SUNNY     76  52  43 SW12      29.97F
SOMERSET       MOSUNNY   73  55  53 W8        29.95F
MIDDLESBORO    SUNNY     77  55  45 CALM      30.00F
MONTICELLO     PTCLDY    76  62  62 VRB5      29.95F
$$





USA.gov is the U.S. government's official web portal to all federal, state and local government web resources and services.